Location: Marcé
(47.5801°N, 0.3280°W)
Time: 20:43:44
(UTC+01:00)

Tiros 1 despin weight - Pass Details

Date: 12 December 2021
Orbit: 592 x 641 km, 48.2° (Epoch: 16 January)

Event Time Altitude Azimuth Distance (km) Brightness Sun altitude
Rises 13:25:40 0° 268° (W) 2,853 ? 19.0°
Reaches altitude 10° 13:27:58 10° 269° (W) 1,943 ? 18.9°
Maximum altitude 13:32:25 82° 356° (N) 607 ? 18.8°
Drops below altitude 10° 13:36:51 10° 86° (E) 1,925 ? 18.7°
Sets 13:39:08 0° 87° (E) 2,824 ? 18.6°
